Theta_e
308 304 304 297 293 296 289 286 287 291 300 306 318 316 317 319 322 323 324 330 332 335 337 337 338 339 340 341 342 342 343 344
309 309 309 303 301 294 292 286 286 291 297 305 312 313 315 318 320 322 324 329 332 332 334 337 339 339 341 343 342 343 344 344
305 303 300 303 300 297 295 291 290 288 296 313 313 315 314 316 321 321 323 325 332 334 333 337 340 339 339 341 342 344 345 345
299 303 307 303 299 299 294 294 292 292 296 316 316 317 315 315 321 323 323 325 330 332 335 336 338 339 339 342 342 343 345 345
296 299 303 302 305 298 296 294 293 292 294 317 315 316 314 316 320 323 325 326 327 329 332 330 331 330 331 333 338 340 347 346
293 294 298 299 305 306 297 294 296 300 306 311 311 313 315 317 321 322 324 325 326 326 326 331 334 331 331 332 331 332 332 333
297 302 303 302 306 308 303 300 297 300 303 307 311 312 315 317 321 322 324 325 325 326 323 325 333 333 332 333 329 330 329 330
292 299 302 300 302 306 306 306 305 303 300 309 314 316 315 317 320 321 324 326 327 329 329 327 329 333 335 335 332 329 327 328
289 295 297 292 299 302 304 305 304 297 301 309 309 311 314 316 320 320 322 325 326 327 329 332 331 330 327 327 326 326 325 325
289 289 284 295 302 308 305 306 306 306 307 308 308 311 313 317 320 320 321 322 324 326 327 329 327 326 326 327 324 323 325 324
288 286 294 300 300 300 299 299 307 304 307 309 310 311 310 319 316 316 321 323 322 325 327 327 328 327 326 325 325 325 324 324
289 287 286 295 304 308 304 294 307 307 306 306 307 299 303 311 315 315 317 318 319 320 323 324 327 332 328 326 328 326 327 331
290 289 295 302 306 308 291 293 305 308 307 306 303 305 309 313 314 315 315 316 318 317 316 318 323 329 330 327 327 330 333 333
288 288 287 306 305 298 300 303 306 308 308 307 309 311 311 312 312 313 314 315 316 314 315 317 319 320 325 327 330 332 333 334
292 292 302 304 304 307 307 305 306 306 309 310 309 309 310 311 311 312 313 314 316 315 314 317 318 319 318 322 326 328 327 326
298 300 303 305 307 309 309 308 310 310 309 308 306 307 307 308 308 308 311 314 315 314 314 315 318 319 319 321 324 326 325 325
296 299 304 306 308 309 308 309 309 309 309 309 308 308 309 309 309 309 310 311 312 311 311 313 317 317 318 319 321 321 324 325
295 301 301 302 308 309 306 307 308 308 308 310 311 308 308 308 310 310 311 311 309 309 310 312 313 315 317 319 320 322 323 324
302 305 305 306 308 309 306 308 308 307 307 307 310 308 308 308 309 310 310 310 310 310 310 311 311 313 316 319 320 319 319 321
Wind_Speed
3 3 6 2 1 4 7 3 3 3 7 7 26 27 28 26 22 20 17 12 17 17 18 17 17 17 18 16 15 15 16 13
6 7 7 6 4 4 5 2 3 5 5 7 22 23 22 24 23 22 22 10 3 5 6 9 13 14 14 14 16 15 15 13
6 7 3 7 5 6 6 4 4 0 1 7 11 10 14 16 16 19 18 19 11 3 4 4 4 3 5 7 10 10 11 12
5 2 6 5 4 5 6 4 2 4 4 4 7 9 13 15 17 17 18 16 13 12 9 8 6 4 3 3 4 4 4 5
7 8 7 8 7 3 5 3 2 4 3 7 5 6 7 10 12 14 16 18 16 14 12 9 11 12 14 14 12 11 5 2
6 4 2 5 5 5 4 4 4 3 4 9 14 13 11 12 10 11 11 11 13 12 9 6 3 11 10 5 7 5 9 10
2 8 8 4 5 8 6 2 4 3 3 5 7 9 8 4 7 9 11 13 10 9 7 6 5 6 5 14 4 5 7 5
2 4 9 11 8 6 7 5 5 5 0 3 7 8 10 8 11 7 7 7 9 8 8 4 5 1 9 16 10 4 5 1
1 3 5 6 4 2 2 3 1 0 2 5 7 10 7 9 10 12 9 6 7 5 10 9 5 2 7 10 12 9 8 4
3 3 2 5 2 5 7 3 4 3 5 6 6 9 10 3 4 13 13 13 12 7 5 7 7 9 5 4 4 6 9 9
5 3 1 4 2 2 5 2 4 4 5 6 9 8 7 2 6 9 11 12 11 9 11 7 6 5 5 7 9 15 12 12
2 4 7 4 5 5 3 5 3 3 5 7 7 6 6 8 12 11 9 9 11 13 9 10 10 6 7 8 9 13 12 13
2 2 3 2 5 4 2 6 5 4 6 7 5 6 8 12 12 10 7 10 11 10 7 9 9 8 7 8 10 12 11 11
3 3 3 1 0 0 4 3 4 6 7 9 10 12 13 13 12 13 12 12 9 7 9 9 8 6 6 8 10 9 7 6
5 5 3 1 5 3 3 4 4 5 9 10 14 14 14 13 14 13 14 12 10 8 8 8 7 7 7 7 10 7 8 3
4 4 5 4 4 4 3 4 6 6 8 11 13 14 14 11 11 12 12 12 10 7 9 10 10 10 10 11 7 7 7 7
0 1 2 3 4 4 1 4 7 9 10 12 13 14 13 12 11 11 11 10 9 11 10 10 11 12 12 14 11 9 6 5
6 6 5 3 5 3 1 4 7 10 13 11 12 12 13 12 11 11 12 10 10 11 11 12 11 15 15 12 10 10 7 5
5 6 5 6 6 2 1 5 6 9 10 13 11 11 13 13 12 14 12 12 11 11 11 11 11 13 15 13 8 7 6 6
Wind_Direction
26 116 119 184 140 182 104 25 29 322 338 288 1 4 2 356 3 5 341 256 210 192 193 189 190 194 192 187 193 191 197 198
330 52 27 101 143 38 12 69 342 352 67 325 347 346 346 351 358 354 353 340 198 218 217 205 196 195 193 192 193 193 192 196
39 18 348 12 14 48 111 123 159 13 314 344 329 335 335 336 352 5 356 8 358 57 112 130 118 208 236 216 194 196 192 198
164 296 85 80 39 108 111 284 87 136 218 358 332 335 352 348 347 358 12 4 2 12 21 47 64 74 125 44 359 350 317 260
340 354 7 57 328 330 105 77 24 134 207 357 338 19 11 341 356 2 1 5 357 12 26 36 57 43 52 50 42 33 23 303
166 191 143 70 332 342 97 103 159 166 318 334 344 355 5 355 354 352 2 9 3 7 8 355 21 68 3 26 84 56 48 22
94 96 87 76 30 18 64 105 120 155 161 282 310 320 329 307 340 5 4 359 9 4 352 353 318 92 346 275 177 194 118 119
57 91 106 81 31 30 31 39 104 125 273 245 295 318 336 348 340 356 349 346 343 1 334 2 60 308 230 246 257 187 133 192
223 97 141 34 344 60 79 21 34 277 295 326 314 320 302 328 337 330 337 312 315 332 342 338 356 257 284 319 352 355 327 300
179 14 183 239 280 87 106 29 360 311 307 313 300 296 283 261 297 321 321 327 324 322 277 281 309 310 308 287 312 304 292 300
121 86 83 275 140 224 213 264 349 337 316 316 328 327 304 77 358 324 311 311 311 311 313 299 235 250 274 302 297 302 307 300
116 142 208 192 289 315 117 268 263 293 300 312 331 311 268 327 332 324 321 312 314 325 317 315 305 200 225 250 274 279 301 295
99 124 289 211 290 296 191 250 309 294 302 304 289 251 289 306 307 307 290 302 307 313 309 300 308 303 271 263 257 260 273 274
97 103 265 1 230 224 217 284 277 295 297 296 288 302 302 304 303 308 309 310 300 286 297 301 311 322 282 277 269 273 285 254
163 204 185 99 141 154 175 230 272 270 288 296 304 300 303 304 307 303 306 304 303 291 293 300 296 307 298 287 300 299 302 345
102 258 163 166 157 185 227 250 290 284 289 289 288 304 304 303 306 305 301 304 311 304 306 303 304 304 304 302 289 290 293 323
94 106 61 192 188 163 271 297 293 284 275 286 292 291 302 295 296 293 296 300 311 306 295 290 294 300 305 306 310 302 284 285
214 191 158 196 157 163 320 287 291 306 314 315 309 319 320 316 310 305 302 304 301 298 308 305 302 296 297 299 304 305 301 300
179 175 172 145 157 183 269 300 311 323 331 325 329 322 317 311 310 310 304 301 294 289 277 270 274 279 286 291 300 294 291 288